New Castle, PA

10:24 PM EST on December 12, 2017 (GMT -0500)
New Castle Municipal

Weather History for KUCP - December, 2012

Change the Weather History Date:

Tuesday, December 18, 2012

  Actual Average Record
Temperature  
Mean Temperature 39 °F -  
Max Temperature 44 °F 37 °F 62 °F (1984)
Min Temperature 34 °F 20 °F -13 °F (1989)
Degree Days  
Heating Degree Days 26    
Moisture  
Dew Point 37 °F    
Average Humidity 92    
Maximum Humidity 100    
Minimum Humidity 63    
Precipitation  
Precipitation 0.06 in - - ()
Sea Level Pressure  
Sea Level Pressure 29.65 in    
Wind  
Wind Speed 4 mph (West)    
Max Wind Speed 14 mph    
Max Gust Speed -    
Visibility 6 miles    
Events Fog , Rain    
Averages and records for this station are not official NWS values.
T = Trace of Precipitation, MM = Missing Value Source: NWS Daily Summary

Daily Weather History Graph

Daily Weather History Graph

Search for Another Location

Airport or City:

Trip Planner

Search our weather history database for the weather conditions in past years. The results will help you decide how hot, cold, wet, or windy it might be!

Date:

Astronomy

Dec. 18, 2012 Rise Set
Actual Time 7:41 AM EST 4:55 PM EST
Civil Twilight 7:10 AM EST 5:26 PM EST
Nautical Twilight 6:35 AM EST 6:01 PM EST
Astronomical Twilight 6:02 AM EST 6:34 PM EST
Moon 11:18 AM EST (12/18) 11:22 PM EST (12/18)
Length of Visible Light 10h 15m
Length of Day
9h 13m
Waxing Crescent, 34% of the Moon is Illuminated
Dec 18
Waxing Crescent
Dec 20
First Quarter
Dec 28
Full
Jan 4
Last Quarter
Jan 11
New

Hourly Weather History & Observations

Time (EST) Temp. Windchill Dew Point Humidity Pressure Visibility Wind Dir Wind Speed Gust Speed Precip Events Conditions
12:15 AM 42.8 °F - 42.8 °F 100% 29.52 in 0.2 mi Calm Calm - 0.00 in Fog , Rain Light Rain
12:22 AM 42.8 °F - 42.8 °F 100% 29.52 in 0.8 mi Calm Calm - 0.00 in Rain Light Rain
12:25 AM 42.8 °F - 42.8 °F 100% 29.52 in 1.2 mi Calm Calm - 0.00 in Rain Light Rain
12:32 AM 42.8 °F - 42.8 °F 100% 29.52 in 1.8 mi Calm Calm - 0.00 in Rain Light Rain
12:56 AM 43.0 °F - 43.0 °F 100% 29.57 in 1.0 mi Calm Calm - 0.03 in Rain Light Rain
12:59 AM 42.8 °F 41.1 °F 42.8 °F 100% 29.52 in 0.5 mi West 3.5 mph - 0.00 in Fog , Rain Light Rain
1:02 AM 42.8 °F - 42.8 °F 100% 29.51 in 0.2 mi Calm Calm - 0.00 in Fog , Rain Light Rain
1:23 AM 42.8 °F - 42.8 °F 100% 29.51 in 0.5 mi Calm Calm - 0.01 in Fog , Rain Light Rain
1:26 AM 42.8 °F - 42.8 °F 100% 29.51 in 0.8 mi Calm Calm - 0.01 in Rain Light Rain
1:39 AM 42.8 °F - 42.8 °F 100% 29.51 in 1.0 mi Calm Calm - 0.02 in   Overcast
1:47 AM 42.8 °F - 42.8 °F 100% 29.51 in 0.5 mi Calm Calm - 0.02 in Fog Fog
1:56 AM 43.0 °F - 43.0 °F 100% 29.57 in 0.8 mi Calm Calm - 0.02 in   Overcast
2:05 AM 42.8 °F - 42.8 °F 100% 29.51 in 1.2 mi Calm Calm - N/A   Overcast
2:09 AM 42.8 °F - 42.8 °F 100% 29.51 in 2.0 mi Calm Calm - N/A   Overcast
2:18 AM 42.8 °F - 42.8 °F 100% 29.51 in 2.5 mi Calm Calm - N/A   Overcast
2:29 AM 44.6 °F - 44.6 °F 100% 29.51 in 4.0 mi Calm Calm - N/A   Overcast
2:48 AM 44.6 °F 43.1 °F 44.6 °F 100% 29.51 in 3.0 mi Variable 3.5 mph - N/A   Overcast
2:56 AM 43.9 °F 41.3 °F 43.9 °F 100% 29.57 in 3.0 mi SSW 4.6 mph - N/A   Overcast
3:01 AM 44.6 °F 42.2 °F 44.6 °F 100% 29.51 in 1.8 mi WSW 4.6 mph - N/A   Overcast
3:03 AM 42.8 °F 38.0 °F 42.8 °F 100% 29.52 in 1.0 mi WSW 8.1 mph - N/A   Overcast
3:05 AM 42.8 °F 37.5 °F 42.8 °F 100% 29.52 in 0.5 mi West 9.2 mph - N/A Fog Fog
3:14 AM 42.8 °F 38.0 °F 42.8 °F 100% 29.52 in 0.8 mi West 8.1 mph - N/A   Overcast
3:16 AM 41.0 °F 34.7 °F 41.0 °F 100% 29.52 in 1.5 mi West 10.4 mph - N/A   Overcast
3:20 AM 41.0 °F 35.2 °F 41.0 °F 100% 29.53 in 3.0 mi WNW 9.2 mph - N/A   Overcast
3:47 AM 39.2 °F 34.2 °F 39.2 °F 100% 29.53 in 6.0 mi West 6.9 mph - N/A   Overcast
3:56 AM 39.9 °F 35.1 °F 39.9 °F 100% 29.59 in 7.0 mi West 6.9 mph - N/A   Overcast
4:39 AM 39.2 °F 35.0 °F 39.2 °F 100% 29.53 in 9.0 mi WNW 5.8 mph - 0.00 in   Overcast
4:56 AM 38.8 °F 35.4 °F 38.8 °F 100% 29.60 in 10.0 mi Variable 4.6 mph - 0.01 in   Overcast
5:03 AM 39.2 °F 34.2 °F 39.2 °F 100% 29.54 in 10.0 mi West 6.9 mph - N/A   Overcast
5:56 AM 37.9 °F 30.0 °F 37.9 °F 100% 29.63 in 10.0 mi WNW 12.7 mph - 0.00 in   Overcast
6:26 AM 37.4 °F 31.4 °F 35.6 °F 93% 29.59 in 10.0 mi WNW 8.1 mph - N/A   Overcast
6:43 AM 35.6 °F 29.2 °F 35.6 °F 100% 29.60 in 10.0 mi WNW 8.1 mph - N/A   Overcast
6:56 AM 36.0 °F 27.5 °F 34.0 °F 93% 29.67 in 10.0 mi WNW 12.7 mph - N/A   Overcast
7:56 AM 34.9 °F 29.0 °F 34.0 °F 97% 29.70 in 10.0 mi West 6.9 mph - N/A   Overcast
8:56 AM 36.0 °F 29.0 °F 34.0 °F 93% 29.73 in 9.0 mi WNW 9.2 mph - 0.00 in   Overcast
9:56 AM 36.9 °F 32.2 °F 34.9 °F 93% 29.76 in 5.0 mi WNW 5.8 mph - 0.00 in   Overcast
10:56 AM 36.0 °F 29.0 °F 34.0 °F 93% 29.79 in 8.0 mi West 9.2 mph - 0.00 in   Overcast
11:25 AM 37.4 °F 32.1 °F 33.8 °F 87% 29.73 in 10.0 mi WNW 6.9 mph - N/A   Overcast
11:56 AM 36.9 °F 30.7 °F 32.9 °F 86% 29.80 in 10.0 mi West 8.1 mph - N/A   Overcast
12:10 PM 37.4 °F 30.3 °F 33.8 °F 87% 29.74 in 9.0 mi West 10.4 mph - N/A   Overcast
12:20 PM 35.6 °F 28.0 °F 33.8 °F 93% 29.74 in 10.0 mi West 10.4 mph - N/A   Overcast
12:56 PM 36.9 °F 30.7 °F 32.9 °F 86% 29.80 in 10.0 mi WSW 8.1 mph - N/A   Overcast
1:40 PM 37.4 °F 30.8 °F 32.0 °F 81% 29.73 in 10.0 mi West 9.2 mph - N/A   Overcast
1:56 PM 38.8 °F 33.2 °F 32.0 °F 76% 29.80 in 10.0 mi West 8.1 mph - N/A   Overcast
2:25 PM 41.0 °F 33.5 °F 32.0 °F 70% 29.74 in 10.0 mi West 13.8 mph - N/A   Overcast
2:39 PM 39.2 °F 32.0 °F 30.2 °F 70% 29.74 in 10.0 mi WSW 11.5 mph - N/A   Mostly Cloudy
2:56 PM 39.9 °F 35.1 °F 31.1 °F 71% 29.81 in 10.0 mi West 6.9 mph - N/A   Partly Cloudy
3:56 PM 39.9 °F 33.9 °F 28.0 °F 63% 29.82 in 10.0 mi West 9.2 mph - N/A   Clear
4:56 PM 37.9 °F 32.1 °F 29.1 °F 71% 29.84 in 10.0 mi WSW 8.1 mph - N/A   Scattered Clouds
5:56 PM 34.9 °F 29.0 °F 28.0 °F 76% 29.86 in 10.0 mi WSW 6.9 mph - N/A   Clear
6:56 PM 34.0 °F 29.8 °F 28.0 °F 79% 29.87 in 10.0 mi WSW 4.6 mph - N/A   Clear
7:56 PM 34.0 °F - 28.0 °F 79% 29.87 in 10.0 mi Calm Calm - N/A   Clear
8:56 PM 34.9 °F - 29.1 °F 79% 29.88 in 10.0 mi Calm Calm - N/A   Scattered Clouds
9:56 PM 34.9 °F 29.9 °F 28.0 °F 76% 29.89 in 10.0 mi SSW 5.8 mph - N/A   Clear
10:56 PM 34.9 °F - 29.1 °F 79% 29.88 in 10.0 mi Calm Calm - N/A   Clear
11:56 PM 34.9 °F 32.0 °F 30.0 °F 82% 29.86 in 10.0 mi SSE 3.5 mph - N/A   Mostly Cloudy